period_start,C,m1,H,J0,J1,J2,J3,J4,J5,JA,JB,JC,JD,JJ,JK,JN,#
2017-08-03 00:00:28,-0.00,2.12,0.00,26.00,30.05,32.47,12.16,41.67,1000.09,2019.21,2811.18,2620.23,2952.62,533.03,512.13,0.01,0000 0000 0000 0000 000002
2017-08-03 00:05:29,0.00,0.00,0.00,26.01,30.05,32.48,13.50,45.55,1000.46,2021.00,3526.43,3074.20,3530.17,599.79,580.45,0.03,0000 0000 0000 0000 000000
2017-08-03 00:10:31,0.00,0.00,0.00,26.03,30.04,32.48,13.67,45.65,1000.51,2021.00,3525.00,3073.97,3529.16,600.08,580.72,0.08,0000 0000 0000 0000 000000
2017-08-03 00:15:32,0.00,0.00,0.00,26.05,30.03,32.47,13.53,45.61,1000.52,2020.98,3524.51,3073.75,3528.81,599.76,580.38,0.13,0000 0000 0000 0000 000000
2017-08-03 00:20:33,0.00,0.00,0.00,26.05,30.03,32.48,13.64,45.72,1000.79,2020.99,3524.01,3073.28,3528.13,599.99,580.83,0.18,0000 0000 0000 0000 000000
2017-08-03 00:25:34,0.00,0.00,0.00,26.05,30.03,32.49,13.58,45.63,1000.98,2020.98,3523.93,3073.04,3528.00,600.46,581.30,0.23,0000 0000 0000 0000 000000
2017-08-03 00:30:35,0.00,0.00,0.00,26.03,30.02,32.49,13.56,45.56,1000.99,2020.99,3523.48,3073.01,3527.97,599.87,580.79,0.28,0000 0000 0000 0000 000000
2017-08-03 00:35:37,0.01,0.00,0.00,26.03,30.02,32.50,13.58,45.83,1001.03,2020.98,3523.21,3073.00,3527.45,599.97,580.93,0.33,0000 0000 0000 0000 000000
2017-08-03 00:40:38,0.00,0.00,0.00,26.00,30.02,32.49,13.62,45.77,1001.18,2020.98,3523.02,3073.00,3527.03,600.04,581.13,0.38,0000 0000 0000 0000 000000
2017-08-03 00:45:39,0.00,0.00,0.00,25.99,30.02,32.50,13.53,46.08,1001.26,2020.98,3523.01,3073.00,3527.00,600.18,581.45,0.43,0000 0000 0000 0000 000000
2017-08-03 00:50:41,-0.00,0.00,0.00,25.99,30.02,32.49,13.62,45.92,1001.24,2020.95,3522.99,3073.00,3526.97,600.19,581.33,0.48,0000 0000 0000 0000 000000
2017-08-03 00:55:42,-0.00,0.00,0.00,26.00,30.02,32.49,13.60,45.71,1001.45,2020.92,3522.98,3073.00,3526.93,600.06,581.34,0.53,0000 0000 0000 0000 000000
2017-08-03 01:00:43,-0.00,0.00,0.00,26.00,30.01,32.49,13.58,45.97,1001.48,2020.92,3522.96,3072.99,3526.87,600.05,581.33,0.58,0000 0000 0000 0000 000000
2017-08-03 01:05:44,0.02,0.00,0.00,25.99,30.00,32.48,13.59,46.08,1001.50,2020.93,3522.51,3072.97,3526.41,600.17,581.40,0.63,0000 0000 0000 0000 000000
2017-08-03 01:10:45,0.00,0.00,0.00,25.98,30.00,32.47,13.61,45.84,1001.54,2020.89,3522.32,3072.97,3526.10,599.91,581.26,0.68,0000 0000 0000 0000 000000
2017-08-03 01:15:47,-0.00,0.00,0.00,25.99,30.00,32.49,13.53,45.83,1001.93,2020.91,3522.41,3072.98,3526.05,599.87,581.43,0.73,0000 0000 0000 0000 000000
2017-08-03 01:20:48,0.00,0.00,0.00,25.98,30.00,32.48,13.61,45.82,1001.97,2020.88,3522.30,3072.98,3526.03,599.87,581.48,0.78,0000 0000 0000 0000 000000
2017-08-03 01:25:49,-0.01,0.00,0.00,25.97,30.00,32.48,13.59,45.81,1001.97,2020.82,3522.08,3072.98,3526.01,599.93,581.64,0.83,0000 0000 0000 0000 000000
2017-08-03 01:30:50,0.01,0.00,0.00,25.97,30.00,32.47,13.62,45.73,1001.98,2020.88,3522.05,3072.99,3526.00,599.93,581.53,0.88,0000 0000 0000 0000 000000
2017-08-03 01:35:52,0.00,0.00,0.00,25.98,29.99,32.47,13.59,45.75,1002.00,2020.93,3522.00,3072.98,3526.01,599.97,581.60,0.93,0000 0000 0000 0000 000000
2017-08-03 01:40:53,0.00,0.00,0.00,25.98,29.98,32.47,13.62,45.96,1002.21,2020.96,3522.00,3072.97,3526.00,599.97,581.72,0.98,0000 0000 0000 0000 000000
2017-08-03 01:45:54,0.00,0.00,0.00,25.97,29.98,32.47,13.58,45.79,1002.45,2020.98,3522.00,3072.95,3526.00,600.20,581.94,1.03,0000 0000 0000 0000 000000
2017-08-03 01:50:55,0.00,0.00,0.00,25.97,29.97,32.47,13.62,45.91,1002.41,2020.99,3521.99,3072.97,3526.00,600.04,581.90,1.08,0000 0000 0000 0000 000000
2017-08-03 01:55:56,0.00,0.00,0.00,25.96,29.97,32.46,13.59,45.87,1002.44,2020.98,3521.98,3072.94,3525.97,600.08,582.06,1.13,0000 0000 0000 0000 000000
2017-08-03 02:00:57,-0.00,0.00,0.00,25.97,29.97,32.45,13.56,46.03,1002.41,2020.98,3521.98,3072.97,3525.96,600.07,582.10,1.18,0000 0000 0000 0000 000000
2017-08-03 02:05:59,0.00,0.00,0.00,25.97,29.97,32.45,13.58,45.89,1002.27,2020.96,3521.97,3072.87,3525.93,599.97,581.58,1.23,0000 0000 0000 0000 000000
2017-08-03 02:11:00,-0.00,0.00,0.00,25.97,29.97,32.45,13.58,46.05,1002.44,2020.96,3521.96,3072.92,3525.92,600.17,582.11,1.28,0000 0000 0000 0000 000000
2017-08-03 02:16:01,0.00,0.00,0.00,25.96,29.97,32.44,13.63,45.63,1002.44,2020.99,3521.79,3072.95,3525.97,600.44,582.33,1.33,0000 0000 0000 0000 000000
2017-08-03 02:21:03,-0.00,0.00,0.00,25.97,29.96,32.44,13.69,45.83,1002.38,2020.99,3521.67,3072.95,3525.92,600.29,581.94,1.38,0000 0000 0000 0000 000000
2017-08-03 02:26:04,0.00,0.00,0.00,25.96,29.95,32.43,13.55,45.98,1002.31,2020.99,3521.79,3072.93,3525.71,600.09,581.84,1.43,0000 0000 0000 0000 000000
2017-08-03 02:31:05,0.01,0.00,0.00,25.96,29.95,32.43,13.63,45.88,1002.15,2020.99,3521.38,3072.87,3525.50,600.50,582.24,1.49,0000 0000 0000 0000 000000
2017-08-03 02:36:06,-0.00,0.00,0.00,25.95,29.95,32.44,13.63,46.02,1002.03,2020.99,3521.29,3072.88,3525.52,600.50,582.16,1.54,0000 0000 0000 0000 000000
2017-08-03 02:41:08,0.01,0.00,0.00,25.95,29.95,32.44,13.59,46.06,1002.00,2020.99,3521.12,3072.63,3525.17,600.13,581.70,1.59,0000 0000 0000 0000 000000
2017-08-03 02:46:09,-0.00,0.01,0.00,25.95,29.95,32.43,13.66,46.35,1002.12,2020.99,3521.02,3072.60,3525.03,600.09,581.88,1.64,0000 0000 0000 0000 000000
2017-08-03 02:51:11,0.03,0.01,0.00,25.94,29.95,32.43,13.56,46.02,1002.13,2020.99,3520.40,3072.22,3524.92,599.62,581.19,1.69,0000 0000 0000 0000 000000
2017-08-03 02:56:12,0.00,0.01,0.00,25.93,29.95,32.42,13.57,45.82,1002.27,2020.99,3520.00,3072.00,3524.66,599.63,581.49,1.74,0000 0000 0000 0000 000000
2017-08-03 03:01:13,0.00,0.01,0.00,25.91,29.95,32.43,13.65,46.34,1002.31,2020.99,3520.00,3071.99,3524.62,600.25,582.05,1.79,0000 0000 0000 0000 000000
2017-08-03 03:06:14,0.00,0.01,0.00,25.87,29.93,32.43,13.56,45.99,1002.35,2020.99,3520.00,3071.99,3524.39,600.00,582.08,1.84,0000 0000 0000 0000 000000
2017-08-03 03:11:16,0.00,0.01,0.00,25.87,29.92,32.43,13.59,46.15,1002.40,2020.99,3520.00,3071.99,3524.40,600.15,582.22,1.89,0000 0000 0000 0000 000000
2017-08-03 03:16:17,0.00,0.01,0.00,25.87,29.92,32.41,13.74,46.36,1002.40,2020.99,3519.99,3071.99,3524.30,600.93,582.95,1.94,0000 0000 0000 0000 000000
2017-08-03 03:21:18,0.00,0.01,0.00,25.87,29.92,32.41,13.53,45.78,1002.40,2020.99,3519.99,3071.99,3524.44,599.51,581.54,1.99,0000 0000 0000 0000 000000
2017-08-03 03:26:19,-0.00,0.01,0.00,25.85,29.92,32.40,13.56,45.97,1002.46,2020.99,3519.99,3071.99,3524.43,599.66,581.68,2.04,0000 0000 0000 0000 000000
2017-08-03 03:31:21,0.00,0.01,0.00,25.85,29.90,32.39,13.67,46.25,1002.49,2020.99,3519.99,3071.99,3524.21,600.33,582.43,2.09,0000 0000 0000 0000 000000
2017-08-03 03:36:22,0.00,0.01,0.00,25.85,29.90,32.38,13.52,45.75,1002.53,2020.99,3519.99,3071.99,3524.08,599.90,582.12,2.14,0000 0000 0000 0000 000000
2017-08-03 03:41:23,0.00,0.01,0.00,25.85,29.90,32.37,13.61,45.87,1002.64,2020.99,3519.99,3071.99,3524.16,600.13,582.37,2.19,0000 0000 0000 0000 000000
2017-08-03 03:46:24,0.00,0.01,0.00,25.85,29.90,32.37,13.59,45.58,1002.92,2020.99,3519.99,3071.99,3524.04,599.65,582.19,2.24,0000 0000 0000 0000 000000
2017-08-03 03:51:26,0.00,0.01,0.00,25.85,29.89,32.37,13.58,45.76,1002.94,2020.99,3519.98,3071.99,3524.04,600.03,582.45,2.29,0000 0000 0000 0000 000000
2017-08-03 03:56:27,0.00,0.01,0.00,25.85,29.87,32.36,13.55,45.89,1003.10,2020.99,3519.99,3071.99,3524.08,600.42,583.06,2.34,0000 0000 0000 0000 000000
2017-08-03 04:01:28,0.00,0.01,0.00,25.86,29.87,32.34,13.63,45.73,1003.30,2021.00,3519.99,3071.99,3524.05,600.22,582.85,2.39,0000 0000 0000 0000 000000
2017-08-03 04:06:29,0.00,0.01,0.00,25.87,29.87,32.35,13.60,45.74,1003.43,2021.00,3519.99,3072.00,3524.12,600.28,582.94,2.44,0000 0000 0000 0000 000000
2017-08-03 04:11:31,0.00,0.01,0.00,25.88,29.87,32.34,13.58,45.74,1003.44,2021.01,3519.99,3072.00,3524.07,598.89,581.42,2.49,0000 0000 0000 0000 000000
2017-08-03 04:16:32,0.00,0.01,0.00,25.89,29.87,32.33,13.69,45.93,1003.45,2021.01,3519.99,3072.00,3524.04,600.35,582.90,2.54,0000 0000 0000 0000 000000
2017-08-03 04:21:33,0.00,0.01,0.00,25.89,29.87,32.33,13.61,45.93,1003.44,2021.00,3519.99,3072.00,3524.03,599.65,582.11,2.59,0000 0000 0000 0000 000000
2017-08-03 04:26:34,0.00,0.01,0.00,25.90,29.87,32.34,13.53,45.87,1003.44,2021.00,3519.99,3072.00,3524.01,599.37,582.11,2.64,0000 0000 0000 0000 000000
2017-08-03 04:31:35,0.00,0.01,0.00,25.92,29.87,32.33,13.52,45.71,1003.45,2021.01,3519.97,3072.00,3524.04,599.43,581.88,2.69,0000 0000 0000 0000 000000
2017-08-03 04:36:37,0.00,0.01,0.00,25.92,29.87,32.34,13.58,45.84,1003.61,2021.04,3519.96,3072.00,3524.02,599.58,582.33,2.74,0000 0000 0000 0000 000000
2017-08-03 04:41:38,-0.00,0.01,0.00,25.94,29.87,32.33,13.58,45.55,1003.81,2021.02,3519.94,3072.00,3524.01,600.07,582.82,2.79,0000 0000 0000 0000 000000
2017-08-03 04:46:39,0.00,0.01,0.00,25.95,29.87,32.34,13.60,45.69,1003.78,2021.03,3519.84,3072.00,3524.00,599.51,582.43,2.84,0000 0000 0000 0000 000000
2017-08-03 04:51:41,0.00,0.01,0.00,25.95,29.87,32.34,13.61,45.62,1003.86,2021.03,3519.83,3072.00,3524.00,599.71,582.48,2.89,0000 0000 0000 0000 000000
2017-08-03 04:56:42,0.00,0.01,0.00,25.97,29.88,32.33,13.50,45.46,1003.91,2021.01,3519.80,3072.00,3524.00,599.90,582.74,2.94,0000 0000 0000 0000 000000
2017-08-03 05:01:43,0.01,0.01,0.00,25.97,29.89,32.33,13.66,45.67,1003.94,2021.01,3519.48,3072.00,3523.99,600.15,582.89,2.99,0000 0000 0000 0000 000000
2017-08-03 05:06:44,0.00,0.01,0.00,25.97,29.90,32.34,13.54,45.37,1004.11,2021.01,3519.31,3071.98,3523.99,599.01,581.90,3.04,0000 0000 0000 0000 000000
2017-08-03 05:11:46,-0.00,0.01,0.00,25.97,29.90,32.35,13.61,45.60,1004.12,2021.01,3519.43,3071.99,3523.99,599.65,582.44,3.09,0000 0000 0000 0000 000000
2017-08-03 05:16:47,0.03,0.01,0.00,25.97,29.90,32.36,13.61,45.57,1004.26,2021.00,3518.97,3071.48,3523.26,599.74,582.71,3.14,0000 0000 0000 0000 000000
2017-08-03 05:21:49,0.01,0.01,0.00,25.98,29.90,32.35,13.64,45.81,1004.37,2021.00,3518.58,3071.23,3523.02,601.04,583.98,3.19,0000 0000 0000 0000 000000
2017-08-03 05:26:50,-0.00,0.01,0.00,26.00,29.90,32.35,13.61,45.62,1004.41,2021.00,3518.35,3071.17,3523.01,599.44,582.59,3.24,0000 0000 0000 0000 000000
2017-08-03 05:31:51,0.00,0.01,0.00,26.00,29.90,32.36,13.56,45.42,1004.43,2021.01,3518.26,3071.16,3523.00,600.22,583.17,3.29,0000 0000 0000 0000 000000
2017-08-03 05:36:53,-0.00,0.01,0.00,26.00,29.90,32.37,13.68,45.83,1004.46,2021.00,3518.06,3071.05,3523.00,599.73,582.73,3.34,0000 0000 0000 0000 000000
2017-08-03 05:41:54,0.00,0.01,0.00,26.01,29.92,32.38,13.61,45.36,1004.43,2021.00,3518.01,3071.02,3522.99,600.07,582.91,3.39,0000 0000 0000 0000 000000
2017-08-03 05:46:55,0.00,0.01,0.00,26.02,29.92,32.38,13.61,45.44,1004.42,2021.00,3518.00,3071.01,3522.99,600.56,583.48,3.44,0000 0000 0000 0000 000000
2017-08-03 05:51:57,0.00,0.01,0.00,26.03,29.92,32.38,13.57,45.58,1004.42,2021.00,3518.00,3071.00,3522.98,599.37,582.31,3.49,0000 0000 0000 0000 000000
2017-08-03 05:56:58,0.00,0.01,0.00,26.05,29.92,32.38,13.64,45.70,1004.42,2021.00,3518.00,3071.00,3522.97,600.28,583.12,3.54,0000 0000 0000 0000 000000
2017-08-03 06:02:00,0.00,0.01,0.00,26.06,29.93,32.38,13.56,45.67,1004.41,2021.00,3517.99,3071.00,3522.89,599.93,582.80,3.59,0000 0000 0000 0000 000000
2017-08-03 06:07:01,0.00,0.01,0.00,26.07,29.95,32.38,13.60,45.52,1004.41,2021.00,3517.99,3071.00,3522.72,600.13,582.92,3.64,0000 0000 0000 0000 000000
2017-08-03 06:12:02,0.00,0.01,0.00,26.09,29.95,32.38,13.57,45.52,1004.42,2020.99,3517.98,3071.00,3522.32,600.17,583.00,3.69,0000 0000 0000 0000 000000
2017-08-03 06:17:04,0.00,0.01,0.00,26.11,29.95,32.39,13.50,45.42,1004.44,2020.99,3517.93,3071.00,3522.13,599.07,581.81,3.74,0000 0000 0000 0000 000000
2017-08-03 06:22:05,0.00,0.01,0.00,26.11,29.96,32.40,13.52,45.33,1004.45,2020.98,3517.94,3071.00,3522.05,600.09,582.81,3.80,0000 0000 0000 0000 000000
2017-08-03 06:27:06,0.01,0.01,0.00,26.11,29.97,32.41,13.69,45.58,1004.50,2020.97,3517.59,3070.99,3522.01,600.01,582.89,3.85,0000 0000 0000 0000 000000
2017-08-03 06:32:08,0.01,0.01,0.00,26.12,29.97,32.42,13.58,45.37,1004.61,2020.97,3517.44,3070.98,3522.00,599.75,582.63,3.90,0000 0000 0000 0000 000000
2017-08-03 06:37:09,0.00,0.01,0.00,26.13,29.97,32.42,13.62,45.45,1004.60,2020.96,3517.13,3070.97,3522.00,600.16,582.99,3.95,0000 0000 0000 0000 000000
2017-08-03 06:42:11,0.00,0.01,0.00,26.14,29.99,32.43,13.57,45.28,1004.76,2020.97,3517.02,3070.93,3522.00,599.96,582.85,4.00,0000 0000 0000 0000 000000
2017-08-03 06:47:12,-0.00,0.01,0.00,26.15,30.00,32.42,13.59,45.07,1004.85,2020.97,3517.01,3070.93,3521.98,600.08,583.04,4.05,0000 0000 0000 0000 000000
2017-08-03 06:52:13,0.00,0.01,0.00,26.18,30.00,32.44,13.63,45.70,1004.89,2020.91,3517.00,3070.72,3521.91,599.86,582.74,4.10,0000 0000 0000 0000 000000
2017-08-03 06:57:14,-0.02,0.01,0.00,26.20,30.01,32.45,13.59,45.33,1004.84,2020.70,3517.00,3070.45,3521.66,599.45,582.31,4.15,0000 0000 0000 0000 000000
2017-08-03 07:02:15,-0.00,0.01,0.00,26.21,30.02,32.46,13.64,45.17,1004.64,2020.53,3516.99,3070.33,3521.51,600.46,583.14,4.20,0000 0000 0000 0000 000000
2017-08-03 07:07:17,-0.00,0.01,0.00,26.24,30.02,32.46,13.60,45.21,1004.75,2020.50,3516.99,3070.18,3521.31,599.74,582.49,4.25,0000 0000 0000 0000 000000
2017-08-03 07:12:18,-0.02,0.01,0.00,26.27,30.05,32.47,13.58,45.58,1004.79,2020.18,3516.95,3070.04,3521.04,599.37,582.00,4.30,0000 0000 0000 0000 000000
2017-08-03 07:17:20,0.01,0.01,0.00,26.28,30.05,32.48,13.52,45.10,1004.76,2020.33,3516.85,3070.02,3521.02,599.77,582.36,4.35,0000 0000 0000 0000 000000
2017-08-03 07:22:21,0.02,0.01,0.00,26.30,30.06,32.49,13.62,45.15,1004.76,2020.43,3516.61,3070.00,3521.01,600.31,582.92,4.40,0000 0000 0000 0000 000000
2017-08-03 07:27:22,-0.00,0.01,0.00,26.32,30.07,32.50,13.60,44.91,1004.68,2020.33,3516.24,3070.00,3521.00,600.20,582.74,4.45,0000 0000 0000 0000 000000
2017-08-03 07:32:24,-0.02,0.01,0.00,26.35,30.08,32.51,13.60,45.08,1004.57,2020.18,3516.08,3070.00,3521.00,600.45,582.90,4.50,0000 0000 0000 0000 000000
2017-08-03 07:37:26,-0.00,0.01,0.00,26.37,30.10,32.51,13.61,45.22,1004.75,2020.06,3516.00,3069.99,3520.93,599.87,582.28,4.55,0000 0000 0000 0000 000000
2017-08-03 07:42:27,-0.00,0.01,0.00,26.41,30.11,32.52,13.62,44.98,1004.76,2020.04,3515.99,3069.96,3520.76,600.32,582.69,4.60,0000 0000 0000 0000 000000
2017-08-03 07:47:29,0.01,0.01,0.00,26.44,30.12,32.53,13.59,44.92,1004.50,2020.01,3515.99,3069.88,3520.28,599.91,582.16,4.65,0000 0000 0000 0000 000000
2017-08-03 07:52:30,0.02,0.01,0.00,26.47,30.14,32.54,13.58,44.78,1004.43,2020.01,3515.94,3069.35,3520.03,599.90,581.90,4.70,0000 0000 0000 0000 000000
2017-08-03 07:57:31,0.01,0.01,0.00,26.50,30.15,32.56,13.62,44.89,1004.41,2020.00,3515.88,3069.21,3520.01,600.29,582.28,4.75,0000 0000 0000 0000 000000
2017-08-03 08:02:32,0.01,0.01,0.00,26.53,30.17,32.57,13.55,45.02,1004.42,2020.00,3515.38,3069.04,3520.00,600.07,581.97,4.80,0000 0000 0000 0000 000000
2017-08-03 08:07:33,-0.00,0.01,0.00,26.56,30.17,32.58,13.54,45.59,1004.43,2020.00,3515.15,3069.01,3520.00,600.62,582.44,4.85,0000 0000 0000 0000 000000
2017-08-03 08:12:35,0.00,0.01,0.00,26.59,30.20,32.59,13.58,45.64,1004.45,2020.00,3515.00,3069.00,3519.94,600.26,582.11,4.90,0000 0000 0000 0000 000000
2017-08-03 08:17:36,0.00,0.01,0.00,26.62,30.21,32.61,13.53,45.14,1004.46,2019.99,3515.00,3069.00,3519.78,599.93,581.65,4.95,0000 0000 0000 0000 000000
2017-08-03 08:22:37,0.00,0.01,0.00,26.65,30.23,32.63,13.52,45.03,1004.43,2019.97,3514.99,3068.97,3519.18,599.69,581.42,5.00,0000 0000 0000 0000 000000
2017-08-03 08:27:38,0.01,0.01,0.00,26.67,30.25,32.64,13.57,45.01,1004.51,2019.94,3514.75,3068.51,3519.01,599.95,581.67,5.05,0000 0000 0000 0000 000000
2017-08-03 08:32:40,-0.02,0.01,0.00,26.70,30.26,32.67,13.51,45.35,1004.75,2019.69,3514.53,3068.19,3519.00,599.69,581.58,5.10,0000 0000 0000 0000 000000
2017-08-03 08:37:41,-0.01,0.01,0.00,26.72,30.28,32.69,13.52,45.15,1004.70,2019.37,3514.43,3068.08,3519.00,599.75,581.42,5.15,0000 0000 0000 0000 000000
2017-08-03 08:42:42,-0.02,0.01,0.00,26.75,30.30,32.70,13.51,45.07,1004.77,2019.14,3514.04,3068.02,3518.97,599.83,581.56,5.20,0000 0000 0000 0000 000000
2017-08-03 08:47:43,0.00,0.01,0.00,26.75,30.32,32.72,13.55,45.13,1004.82,2019.06,3513.99,3068.00,3518.61,599.63,581.43,5.25,0000 0000 0000 0000 000000
2017-08-03 08:52:45,0.00,0.01,0.00,26.77,30.34,32.74,13.50,45.14,1004.87,2019.01,3513.96,3067.99,3518.04,599.47,581.27,5.30,0000 0000 0000 0000 000000
2017-08-03 08:57:46,0.01,0.01,0.00,26.80,30.36,32.76,13.55,45.18,1004.89,2019.01,3513.65,3067.93,3518.00,600.06,581.77,5.35,0000 0000 0000 0000 000000
2017-08-03 09:02:47,0.01,0.01,0.00,26.82,30.37,32.77,13.56,44.78,1004.89,2019.01,3513.11,3067.77,3518.00,600.25,581.87,5.40,0000 0000 0000 0000 000000
2017-08-03 09:07:49,0.01,0.01,0.00,26.85,30.40,32.80,13.51,44.68,1004.90,2019.00,3513.00,3067.28,3517.99,600.14,581.74,5.45,0000 0000 0000 0000 000000
2017-08-03 09:12:50,0.00,0.01,0.00,26.88,30.41,32.81,13.52,44.73,1004.89,2019.00,3513.00,3067.06,3517.87,599.89,581.53,5.50,0000 0000 0000 0000 000000
2017-08-03 09:17:51,0.00,0.02,0.00,26.91,30.43,32.83,13.58,44.83,1004.88,2019.00,3512.99,3067.00,3517.30,600.27,581.78,5.55,0000 0000 0000 0000 000000
2017-08-03 09:22:53,0.00,0.02,0.00,26.94,30.45,32.85,13.48,44.78,1004.90,2018.99,3512.96,3067.00,3517.03,599.85,581.28,5.60,0000 0000 0000 0000 000000
2017-08-03 09:27:54,0.01,0.02,0.00,26.95,30.47,32.87,13.51,44.83,1004.92,2018.98,3512.56,3066.99,3517.00,600.06,581.49,5.65,0000 0000 0000 0000 000000
2017-08-03 09:32:56,0.01,0.02,0.00,26.95,30.49,32.90,13.50,44.86,1004.95,2018.93,3512.02,3066.77,3516.96,599.91,581.30,5.70,0000 0000 0000 0000 000000
2017-08-03 09:37:57,0.01,0.02,0.00,26.95,30.50,32.91,13.59,44.88,1004.92,2018.82,3511.99,3066.22,3516.54,600.24,581.66,5.75,0000 0000 0000 0000 000000
2017-08-03 09:42:58,-0.04,0.02,0.00,26.96,30.52,32.94,13.54,44.63,1004.91,2018.32,3511.89,3066.01,3516.03,599.94,581.22,5.80,0000 0000 0000 0000 000000
2017-08-03 09:48:00,0.00,0.01,0.00,27.00,30.54,32.96,13.53,44.46,1004.91,2018.15,3511.55,3066.00,3516.00,599.99,581.39,5.85,0000 0000 0000 0000 000000
2017-08-03 09:53:01,-0.00,0.01,0.00,27.02,30.55,32.97,13.57,44.44,1004.91,2018.08,3511.13,3066.00,3516.00,599.85,581.15,5.90,0000 0000 0000 0000 000000
2017-08-03 09:58:03,-0.00,0.01,0.00,27.04,30.57,32.99,13.56,44.35,1004.92,2018.03,3511.02,3065.99,3515.97,600.06,581.33,5.95,0000 0000 0000 0000 000000
2017-08-03 10:03:04,0.00,0.01,0.00,27.07,30.60,33.01,13.51,44.38,1004.91,2018.02,3511.00,3065.92,3515.82,599.76,581.01,6.00,0000 0000 0000 0000 000000
2017-08-03 10:08:05,0.02,0.02,0.00,27.07,30.61,33.02,13.59,44.57,1004.95,2018.00,3510.92,3065.34,3515.17,600.34,581.54,6.06,0000 0000 0000 0000 000000
2017-08-03 10:13:07,0.00,0.02,0.00,27.06,30.62,33.03,13.50,44.51,1004.92,2018.00,3510.79,3065.08,3515.01,599.96,581.18,6.11,0000 0000 0000 0000 000000
2017-08-03 10:18:08,0.00,0.02,0.00,27.02,30.65,33.06,13.54,44.49,1005.07,2018.00,3510.35,3065.02,3515.00,600.44,581.75,6.16,0000 0000 0000 0000 000000
2017-08-03 10:23:09,0.00,0.02,0.00,27.00,30.65,33.10,13.52,44.56,1005.38,2018.00,3510.07,3065.00,3515.00,599.99,581.54,6.21,0000 0000 0000 0000 000000
2017-08-03 10:28:11,0.00,0.02,0.00,26.97,30.67,33.10,13.60,44.58,1005.39,2018.00,3510.00,3065.00,3514.96,600.10,581.92,6.26,0000 0000 0000 0000 000000
2017-08-03 10:33:12,0.00,0.02,0.00,26.94,30.67,33.13,13.53,44.52,1005.39,2018.00,3509.97,3064.99,3514.89,600.16,581.84,6.31,0000 0000 0000 0000 000000
2017-08-03 10:38:13,0.01,0.02,0.00,26.91,30.68,33.15,13.56,44.53,1005.39,2018.00,3509.81,3064.97,3514.68,600.07,581.95,6.36,0000 0000 0000 0000 000000
2017-08-03 10:43:15,0.01,0.02,0.00,26.88,30.70,33.16,13.56,44.82,1005.39,2018.00,3509.29,3064.88,3514.13,600.28,582.10,6.41,0000 0000 0000 0000 000000
2017-08-03 10:48:16,-0.00,0.02,0.00,26.87,30.70,33.17,13.57,45.01,1005.39,2017.98,3509.51,3064.83,3514.03,599.84,581.66,6.46,0000 0000 0000 0000 000000
2017-08-03 10:53:17,-0.03,0.02,0.00,26.83,30.70,33.18,13.57,45.05,1005.39,2017.73,3509.51,3064.74,3514.00,599.81,581.81,6.51,0000 0000 0000 0000 000000
2017-08-03 10:58:18,-0.01,0.02,0.00,26.81,30.70,33.19,13.59,44.96,1005.39,2017.41,3509.09,3064.36,3513.99,599.92,581.89,6.56,0000 0000 0000 0000 000000
2017-08-03 11:03:19,-0.01,0.02,0.00,26.79,30.70,33.19,13.62,45.21,1005.39,2017.28,3509.02,3064.20,3513.98,600.60,582.58,6.61,0000 0000 0000 0000 000000
2017-08-03 11:08:21,-0.01,0.02,0.00,26.77,30.70,33.18,13.52,45.50,1005.39,2017.03,3509.01,3064.10,3513.87,599.49,581.69,6.66,0000 0000 0000 0000 000000
2017-08-03 11:13:21,0.00,0.02,0.00,26.75,30.69,33.17,13.51,45.34,1005.36,2017.01,3509.01,3064.07,3513.78,600.05,582.17,6.71,0000 0000 0000 0000 000000
2017-08-03 11:18:23,0.00,0.02,0.00,26.75,30.68,33.16,13.63,45.43,1005.20,2017.02,3509.00,3064.10,3513.82,600.41,582.33,6.76,0000 0000 0000 0000 000000
2017-08-03 11:23:24,0.00,0.02,0.00,26.77,30.67,33.14,13.56,45.40,1005.24,2017.01,3509.00,3064.05,3513.66,599.94,581.74,6.81,0000 0000 0000 0000 000000
2017-08-03 11:28:25,0.00,0.02,0.00,26.75,30.67,33.14,13.55,45.27,1005.34,2017.02,3509.00,3064.10,3513.71,599.64,581.74,6.86,0000 0000 0000 0000 000000
2017-08-03 11:33:26,-0.01,0.02,0.00,26.74,30.67,33.13,13.60,45.05,1005.39,2017.01,3509.00,3064.20,3513.83,599.75,581.89,6.91,0000 0000 0000 0000 000000
2017-08-03 11:38:28,0.00,0.02,0.00,26.71,30.65,33.15,13.60,44.95,1005.39,2017.03,3509.00,3064.17,3513.78,599.75,582.01,6.96,0000 0000 0000 0000 000000
2017-08-03 11:43:29,-0.00,0.02,0.00,26.67,30.65,33.13,13.63,45.52,1005.39,2017.03,3509.00,3064.14,3513.81,600.49,582.62,7.01,0000 0000 0000 0000 000000
2017-08-03 11:48:31,-0.00,0.02,0.00,26.64,30.65,33.14,13.62,45.42,1005.39,2017.05,3509.00,3064.34,3513.86,599.85,581.96,7.06,0000 0000 0000 0000 000000
2017-08-03 11:53:32,0.00,0.02,0.00,26.60,30.62,33.13,13.56,45.26,1005.39,2017.13,3509.00,3064.30,3513.75,599.87,582.24,7.11,0000 0000 0000 0000 000000
2017-08-03 11:58:33,0.01,0.02,0.00,26.57,30.62,33.12,13.60,45.06,1005.39,2017.28,3509.00,3064.53,3513.90,600.19,582.62,7.16,0000 0000 0000 0000 000000
2017-08-03 12:03:34,0.02,0.02,0.00,26.53,30.61,33.12,13.64,45.02,1005.39,2017.43,3509.00,3064.50,3513.89,599.85,582.39,7.21,0000 0000 0000 0000 000000
2017-08-03 12:08:36,0.01,0.02,0.00,26.50,30.60,33.10,13.65,44.88,1005.39,2017.53,3508.98,3064.44,3513.80,600.21,582.73,7.26,0000 0000 0000 0000 000000
2017-08-03 12:13:37,0.00,0.02,0.00,26.47,30.59,33.09,13.63,44.82,1005.39,2017.65,3508.98,3064.48,3513.71,600.09,582.74,7.31,0000 0000 0000 0000 000000
2017-08-03 12:18:38,0.01,0.02,0.00,26.44,30.57,33.08,13.58,45.43,1005.39,2017.81,3508.98,3064.54,3513.69,600.59,583.18,7.36,0000 0000 0000 0000 000000
2017-08-03 12:23:39,0.01,0.02,0.00,26.41,30.55,33.07,13.60,45.45,1005.39,2017.79,3508.98,3064.32,3513.39,599.81,582.63,7.41,0000 0000 0000 0000 000000
2017-08-03 12:28:40,-0.00,0.02,0.00,26.38,30.54,33.05,13.55,45.17,1005.40,2017.86,3508.96,3064.46,3513.35,599.46,582.26,7.46,0000 0000 0000 0000 000000
2017-08-03 12:33:42,-0.01,0.02,0.00,26.33,30.52,33.03,13.66,45.38,1005.39,2017.94,3508.98,3064.84,3513.69,600.15,583.02,7.51,0000 0000 0000 0000 000000
2017-08-03 12:38:43,-0.00,0.02,0.00,26.29,30.50,33.02,13.60,44.99,1005.39,2017.96,3508.99,3064.95,3513.89,599.73,582.76,7.56,0000 0000 0000 0000 000000
2017-08-03 12:43:45,0.00,0.02,0.00,26.25,30.48,33.00,13.66,45.22,1005.38,2017.98,3508.99,3064.98,3513.96,600.07,583.11,7.61,0000 0000 0000 0000 000000
2017-08-03 12:48:46,0.00,0.02,0.00,26.22,30.46,32.99,13.60,45.10,1005.38,2017.99,3509.00,3064.99,3513.99,599.70,582.80,7.66,0000 0000 0000 0000 000000
2017-08-03 12:53:47,0.00,0.02,0.00,26.18,30.45,32.97,13.64,45.34,1005.39,2017.99,3509.01,3064.99,3513.99,600.06,583.34,7.71,0000 0000 0000 0000 000000
2017-08-03 12:58:49,0.00,0.02,0.00,26.15,30.42,32.94,13.66,45.41,1005.39,2017.99,3509.02,3065.00,3513.99,600.16,583.32,7.76,0000 0000 0000 0000 000000